Location: Recife
(8.0585°S, 34.8848°W)
Time: 10:45:51
(UTC-03:00)

SR - Pass Details

Date: 22 April 2026
Orbit: 568 x 852 km, 66.7° (Epoch: 12 May)

Event Time Altitude Azimuth Distance (km) Brightness Sun altitude
Rises 10:35:01 0° 210° (SSW) 2,771 ? 67.0°
Reaches altitude 10° 10:37:17 10° 215° (SW) 1,870 ? 67.2°
Maximum altitude 10:41:17 47° 290° (WNW) 763 ? 67.7°
Drops below altitude 10° 10:45:23 10° 4° (N) 1,912 ? 68.1°
Sets 10:47:43 0° 10° (N) 2,840 ? 68.3°
